logo
App data

Battle Group 2

Your battleships are fully loaded with the return of Battle Group. Command the war against advanced pirates with brand new Satellite Strikes and upgrades for your state-of-the-art battleships. As the commanding gunner of this advanced armada, it's imperative you stop a terrifying new foe our world has yet to fathom.
Store | Hub | SteamDB | Site
Developer: Bane Games Publisher: Publisher: Merge Games
Genre: Action, Indie, Strategy
Languages: English
Tags: Action (35), Indie (31), Strategy (27), Arcade (17), Female Protagonist (10), Casual (8), Naval (6)
Category: Single-player, Steam Achievements, Steam Trading Cards
Release date: Jun 13, 2014
Price: $7.99
Score rank: 60% Userscore: 84% Old userscore: 83%
Owners: 50,000 .. 100,000
Followers: 640
Peak concurrent players yesterday: 3
Playtime total: 05:02 (average) 04:45 (median)

Steam Spy is still in beta, so expect major bugs.

Owners data:

Access restricted.

This feature is only available to users with special access rights. Sorry.

If you want to proceed, you need to register or log in first and then back Steam Spy on Patreon. Look for Indie or Pro pledge.

Don't forget to use the same email as on Steam Spy!

Audience in 2 weeks:

Access restricted.

This feature is only available to users with special access rights. Sorry.

If you want to proceed, you need to register or log in first and then back Steam Spy on Patreon. Look for Indie or Pro pledge.

Don't forget to use the same email as on Steam Spy!

Peak daily concurrent players:

CCU data courtesy of SteamDB. Used with permission.

Hourly concurrent players:

Daily Twitch stats:

Hourly Twitch stats:

YouTube:

The views data is based on top 50 videos uploaded last week. Actual number of views might be more than the number shown.

The displayed number of videos uploaded yesterday is limited to 50, so if there were more videos uploaded, the number will still show 50.

If the game has commonly used word as its name (like "FEAR" or "Volume") its number of Youtube views might be wrong.

Games similar to this one:

# Game Release date
Price
Score rank
(Userscore / Metascore)
Owners
Players
Playtime (Median)
1 Militia Dec 2, 2015 $5.9999% (98%)0 .. 20,0000%00:00 (00:00)
2 Little Big Adventure 2 Oct 20, 2015 $3.9999% (98%)0 .. 20,0000%00:00 (00:00)
3 Dungeon Warfare Nov 4, 2015 $4.4997% (97%)20,000 .. 50,0000%00:00 (00:00)
4 Seven Kingdoms: Ancient Adversaries Jun 8, 1998 $5.99N/A (N/A)0 .. 20,0000%00:00 (00:00)
5 Voodoo Vince: Remastered Apr 17, 2017 $14.9995% (96%/63%)0 .. 20,0000%00:00 (00:00)
6 Defend The Highlands Nov 6, 2015 $9.9995% (96%)100,000 .. 200,0002.78%05:33 (07:10)
7 Darknet Jun 8, 2017 $14.99N/A (N/A)0 .. 20,0000%00:00 (00:00)
8 PixelJunk Shooter Nov 11, 2013 $8.9993% (95%/73%)100,000 .. 200,0000%00:00 (00:00)
9 Templar Battleforce Sep 21, 2015 $9.9993% (95%)20,000 .. 50,00010.53%00:12 (00:07)
10 Chicken Invaders 2 Mar 4, 2016 $3.9993% (95%)0 .. 20,0000%00:00 (00:00)
11 Outcast 1.1 Dec 18, 2014 $5.9993% (95%)20,000 .. 50,0000%00:00 (00:00)
12 Supercharged Robot VULKAISER Jun 4, 2015 $4.9990% (94%)20,000 .. 50,0000%00:00 (00:00)
13 Handsome Mr. Frog Aug 8, 2016 $0.9990% (94%)0 .. 20,0005.56%00:03 (00:01)
14 Kalimba Apr 22, 2015 $9.9990% (94%/81%)0 .. 20,0000%00:00 (00:00)
15 Flywrench Aug 24, 2015 $6.9990% (94%)0 .. 20,0000%00:00 (00:00)
16 Audio Arena Jul 25, 2016 $6.99N/A (N/A)0 .. 20,0000%00:00 (00:00)
17 Star Trek: Judgment Rites May 8, 2015 $9.99N/A (N/A)0 .. 20,0000%00:00 (00:00)
18 Gold Rush! Classic Dec 23, 1988 $2.9990% (94%)200,000 .. 500,0000.78%03:52 (03:06)
19 Run or Die Dec 11, 2014 $4.9990% (94%)0 .. 20,0000%00:00 (00:00)
20 Spider: Rite of the Shrouded Moon Aug 6, 2015 $9.9990% (94%)20,000 .. 50,0000%00:00 (00:00)
21 Majesty Gold HD Mar 23, 2001 $9.9990% (94%)100,000 .. 200,0000%00:00 (00:00)
22 Neon Chrome Apr 28, 2016 $14.9990% (94%/74%)200,000 .. 500,0000.46%00:23 (00:07)
23 Stick it to The Man! Dec 13, 2013 $7.9990% (94%/83%)20,000 .. 50,0000%00:00 (00:00)
24 Adventure in the Tower of Flight Dec 23, 2015 $4.9987% (93%)0 .. 20,0000%00:00 (00:00)
25 Kick Ass Commandos Nov 17, 2016 $9.9987% (93%)0 .. 20,0000%00:00 (00:00)
26 Eufloria HD Oct 14, 2014 $14.9987% (93%)200,000 .. 500,0000.81%00:09 (00:03)
27 Tallowmere Mar 3, 2015 $3.9987% (93%)20,000 .. 50,0000%00:00 (00:00)
28 Ys VI: The Ark of Napishtim Apr 28, 2015 $19.9987% (93%)20,000 .. 50,0000%00:00 (00:00)
29 Super Trench Attack! Jul 24, 2014 $4.9987% (93%)50,000 .. 100,0000.66%03:02 (01:00)
30 Major Mayhem Feb 24, 2014 $4.9987% (93%)20,000 .. 50,0000%00:00 (00:00)
31 RIVE: Wreck, Hack, Die, Retry! Sep 13, 2016 $14.9987% (93%)200,000 .. 500,0000%00:00 (00:00)
32 Bleed Jul 3, 2013 $4.9987% (93%)100,000 .. 200,0000%00:00 (00:00)
33 Super Cyborg Jul 8, 2015 $4.9987% (93%)20,000 .. 50,0000%00:00 (00:00)
34 Ittle Dew Jul 23, 2013 $9.9983% (92%/67%)100,000 .. 200,0001.39%04:40 (03:06)
35 Battle Academy 2: Eastern Front Sep 12, 2014 $39.9983% (92%/78%)0 .. 20,0000%00:00 (00:00)
36 Shmups Skill Test シューティング技能検定 Jun 9, 2016 $4.99N/A (N/A)0 .. 20,0000%00:00 (00:00)
37 Great Big War Game Aug 28, 2012 $6.99N/A (N/A)0 .. 20,0000%00:00 (00:00)
38 Below Kryll Sep 7, 2015 $4.9983% (92%)0 .. 20,0000%00:00 (00:00)
39 Mad Bullets Jun 10, 2016 $1.9983% (92%)0 .. 20,0002.86%01:07 (00:22)
40 Pharaoh Rebirth+ Mar 17, 2016 $9.9983% (92%)0 .. 20,0000%00:00 (00:00)
41 Wars and Warriors: Joan of Arc Feb 7, 2004 $6.9983% (92%/60%)0 .. 20,0000%00:00 (00:00)
42 Anarcute Jul 12, 2016 $14.9983% (92%/79%)0 .. 20,0004.76%02:38 (00:52)
43 The Juicer Sep 6, 2012 $0.9983% (92%)20,000 .. 50,0000%00:00 (00:00)
44 Death Ray Manta SE Sep 17, 2015 $1.9983% (92%)20,000 .. 50,0000%00:00 (00:00)
45 Knightmare Tower Jun 16, 2014 $3.9983% (92%)0 .. 20,0000%00:00 (00:00)
46 Swords and Soldiers HD Dec 2, 2010 $9.9979% (91%)50,000 .. 100,0000%00:00 (00:00)
47 Clash of Puppets Dec 16, 2014 $4.9979% (91%)0 .. 20,0000%00:00 (00:00)
48 Valley Aug 24, 2016 $19.9979% (91%)100,000 .. 200,0003.45%00:15 (00:15)
49 Skulls of the Shogun Jul 29, 2013 $9.9979% (91%/72%)100,000 .. 200,0000%00:00 (00:00)
50 Angry Video Game Nerd II: ASSimilation Mar 29, 2016 $9.9979% (91%)20,000 .. 50,0000%00:00 (00:00)
51 Earth Defense Force: Insect Armageddon Dec 14, 2011 $9.9979% (91%/69%)50,000 .. 100,0000%00:00 (00:00)
52 Warrior Kings: Battles Sep 30, 2003 $9.9979% (91%/64%)0 .. 20,0000%00:00 (00:00)
53 Miracle Fly Oct 26, 2015 $7.9979% (91%)20,000 .. 50,0000%00:00 (00:00)
54 Blue Estate The Game Apr 8, 2015 $12.9979% (91%/59%)50,000 .. 100,0000%00:00 (00:00)
55 Armed with Wings: Rearmed Jun 1, 2017 $9.9979% (91%)20,000 .. 50,0001.75%04:54 (01:38)
56 Near Death Aug 2, 2016 $7.4979% (91%/70%)0 .. 20,0000%00:00 (00:00)
57 Explosionade Sep 23, 2015 $3.99N/A (N/A)0 .. 20,0000%00:00 (00:00)
58 Khet 2.0 Oct 1, 2014 $9.9979% (91%)50,000 .. 100,0000%00:00 (00:00)
59 Dandy: Or a Brief Glimpse Into the Life of the Candy Alchemist Aug 4, 2015 $9.99N/A (N/A)0 .. 20,0000%00:00 (00:00)
60 Demons with Shotguns Apr 25, 2016 $9.99N/A (N/A)0 .. 20,0000%00:00 (00:00)
61 Momodora III Jul 1, 2014 $1.9979% (91%)50,000 .. 100,0000%00:00 (00:00)
62 Death's Hangover Jan 20, 2017 $4.9976% (90%)20,000 .. 50,0000%00:00 (00:00)
63 Superstatic Sep 15, 2015 $4.99N/A (N/A)0 .. 20,0000%00:00 (00:00)
64 Silent Storm Gold Edition Sep 9, 2004 $9.9976% (90%/83%)200,000 .. 500,0000%00:00 (00:00)
65 Headlander Jul 25, 2016 $19.9976% (90%/74%)100,000 .. 200,0000%00:00 (00:00)
66 Planet of the Eyes Aug 24, 2015 $9.9976% (90%/66%)50,000 .. 100,0000%00:00 (00:00)
67 Kohan: Ahriman's Gift Nov 6, 2001 $9.99N/A (N/A/79%)0 .. 20,0000%00:00 (00:00)
68 Weird Hero Nov 18, 2016 $2.9976% (90%)0 .. 20,0000%00:00 (00:00)
69 Kohan II: Kings of War Sep 21, 2004 $9.9976% (90%/81%)20,000 .. 50,0000%00:00 (00:00)
70 Lethe - Episode One Aug 1, 2016 $14.9976% (90%)0 .. 20,0002.94%03:27 (01:09)
71 Fort Meow Jun 25, 2015 $2.7176% (90%)0 .. 20,0000%00:00 (00:00)
72 Apocalypse: Party's Over May 30, 2016 $4.9976% (90%)0 .. 20,0000%00:00 (00:00)
73 MoonBase Commander Aug 13, 2002 $5.9973% (89%/77%)20,000 .. 50,0000%00:00 (00:00)
74 Spectromancer Oct 15, 2008 $9.9973% (89%)20,000 .. 50,0000%00:00 (00:00)
75 CastleStorm Jul 29, 2013 $9.9973% (89%/73%)100,000 .. 200,0000%00:00 (00:00)
76 Command: Northern Inferno Oct 22, 2015 $19.99N/A (N/A)0 .. 20,0000%00:00 (00:00)
77 Codename: Panzers, Phase Two Jul 21, 2005 $14.9973% (89%/80%)0 .. 20,0000%00:00 (00:00)
78 Sneaky Sneaky Nov 12, 2014 $4.9973% (89%/63%)0 .. 20,0000%00:00 (00:00)
79 Reverse Crawl Sep 24, 2015 $5.9973% (89%)20,000 .. 50,0001.15%01:02 (00:20)
80 Zombo Buster Rising Oct 2, 2016 $1.9973% (89%)0 .. 20,0000%00:00 (00:00)
81 Amaranthine Apr 6, 2016 $0.8973% (89%)0 .. 20,0002.86%00:01 (00:00)
82 Warhammer 40,000: Dawn of War – Winter Assault Jan 1, 2006 $12.9973% (89%)500,000 .. 1,000,0000.33%00:01 (00:00)
83 Interloper May 21, 2015 $170% (88%/77%)50,000 .. 100,0000.84%05:34 (03:42)
84 Atom Zombie Smasher Mar 14, 2011 $9.9970% (88%/75%)200,000 .. 500,0000%00:00 (00:00)
85 Viking Squad Oct 4, 2016 $14.9970% (88%)0 .. 20,0000%00:00 (00:00)
86 Earn to Die 2 May 5, 2016 $4.9970% (88%)20,000 .. 50,00022.22%03:57 (02:38)
87 Blacksea Odyssey Jun 1, 2016 $9.9970% (88%/74%)0 .. 20,0000%00:00 (00:00)
88 Super Furball May 13, 2014 $3.99N/A (N/A)0 .. 20,0000%00:00 (00:00)
89 Anodyne Mar 22, 2013 $9.9970% (88%/75%)100,000 .. 200,0000.79%00:32 (00:10)
90 Battlepillars Gold Edition Apr 28, 2014 $4.9970% (88%)20,000 .. 50,0000%00:00 (00:00)
91 The Fall May 30, 2014 $6.9970% (88%/76%)200,000 .. 500,0001.5%00:17 (00:08)
92 Avoid - Sensory Overload Apr 8, 2014 $4.9970% (88%)0 .. 20,0000%00:00 (00:00)
93 Greed Corp Dec 10, 2010 $9.9970% (88%/76%)200,000 .. 500,0000%00:00 (00:00)
94 Graviteam Tactics: Mius-Front Mar 4, 2016 $34.9970% (88%)0 .. 20,0000%00:00 (00:00)
95 The Way May 20, 2016 $14.9970% (88%/67%)20,000 .. 50,0003.85%03:18 (02:11)
96 Tcheco in the Castle of Lucio Jun 22, 2015 $0.9970% (88%)20,000 .. 50,0001.49%03:07 (03:06)
97 Syrian Warfare Feb 21, 2017 $14.9970% (88%)20,000 .. 50,0004.17%07:36 (02:32)
98 Supreme Commander Feb 20, 2007 $14.9967% (87%/86%)500,000 .. 1,000,0000.32%00:20 (00:06)
99 Mr. Shifty Apr 13, 2017 $14.9967% (87%)50,000 .. 100,0000.83%04:02 (02:41)
100 Spooky Cats Jun 4, 2015 $2.9967% (87%)20,000 .. 50,0000%00:00 (00:00)
101 Civilization IV: Warlords Jul 24, 2006 $4.9967% (87%/84%)1,000,000 .. 2,000,0000%00:00 (00:00)
102 Sang-Froid - Tales of Werewolves Apr 5, 2013 Free67% (87%/79%)200,000 .. 500,0001.01%05:51 (05:50)
103 The Tiny Tale 2 Jan 30, 2015 $6.99N/A (N/A)0 .. 20,0000%00:00 (00:00)
104 TRON 2.0 Aug 22, 2003 $9.9967% (87%/84%)20,000 .. 50,0000%00:00 (00:00)
105 Shadow Blade: Reload Aug 10, 2015 $14.9967% (87%/70%)20,000 .. 50,0001.33%04:30 (01:30)
106 Super Chibi Knight Jun 24, 2015 $4.9965% (86%)20,000 .. 50,0002.78%01:00 (00:20)
107 Neon Shadow Aug 25, 2016 $4.99N/A (N/A)0 .. 20,0000%00:00 (00:00)
108 Executive Assault Jul 17, 2015 $12.9965% (86%)20,000 .. 50,0000%00:00 (00:00)
109 Meltdown Jun 5, 2014 $6.9965% (86%)50,000 .. 100,0000%00:00 (00:00)
110 Ghost Master Aug 23, 2003 $0.9965% (86%/81%)100,000 .. 200,0000%00:00 (00:00)
111 Western 1849 Reloaded Feb 10, 2017 $4.9965% (86%)0 .. 20,0000%00:00 (00:00)
112 Rush for Berlin Gold Oct 29, 2009 $4.9965% (86%/76%)20,000 .. 50,0000%00:00 (00:00)
113 Time Rifters Oct 21, 2014 $9.9965% (86%)0 .. 20,0000%00:00 (00:00)
114 N2O: Nitrous Oxide Jun 29, 2015 $4.99N/A (N/A)0 .. 20,0000%00:00 (00:00)
115 Star Ruler Sep 20, 2010 $9.9965% (86%)100,000 .. 200,0000%00:00 (00:00)
116 VelocityUltra Dec 12, 2013 $9.9965% (86%)50,000 .. 100,0000.98%00:01 (00:00)
117 Age of Wonders Shadow Magic Oct 2010 $9.9965% (86%/82%)100,000 .. 200,0001.52%00:42 (00:14)
118 Arcane Sorcery Sep 15, 2015 $0.74N/A (N/A)0 .. 20,0000%00:00 (00:00)
119 CRYPTARK Jun 20, 2017 $14.9965% (86%/80%)50,000 .. 100,0000%00:00 (00:00)
120 The Haunted: Hells Reach Oct 24, 2011 $8.9965% (86%/51%)50,000 .. 100,0000%00:00 (00:00)
121 NOBUNAGA'S AMBITION: Souzou (Traditional Chinese version) Aug 2014 $24.9962% (85%)20,000 .. 50,00014.29%17:33 (05:51)
122 Dustoff Heli Rescue Mar 6, 2015 $3.9962% (85%)20,000 .. 50,0000%00:00 (00:00)
123 ShootMania Storm Apr 10, 2013 $19.9962% (85%/76%)50,000 .. 100,0000%00:00 (00:00)
124 Slash or Die Jun 3, 2016 $2.9962% (85%)50,000 .. 100,0001.74%03:22 (02:51)
125 Steel Rain Dec 3, 2015 $9.9962% (85%)0 .. 20,0000%00:00 (00:00)
126 Magnifico Dec 2, 2014 $4.9962% (85%)50,000 .. 100,0000%00:00 (00:00)
127 Concealed Intent Aug 2, 2016 $14.99N/A (N/A)0 .. 20,0000%00:00 (00:00)
128 ENSLAVED: Odyssey to the West Premium Edition Oct 24, 2013 $19.9962% (85%/70%)200,000 .. 500,0000%00:00 (00:00)
129 Conflict Desert Storm Sep 13, 2002 $6.9959% (84%/56%)20,000 .. 50,0000%00:00 (00:00)
130 Foresight Nov 28, 2014 $4.99N/A (N/A)0 .. 20,0000%00:00 (00:00)
131 Rooks Keep Dec 5, 2014 $7.9959% (84%)20,000 .. 50,0000%00:00 (00:00)
132 Decisive Campaigns: The Blitzkrieg from Warsaw to Paris Aug 26, 2010 $39.99N/A (N/A)0 .. 20,0000%00:00 (00:00)
133 Gurgamoth Feb 16, 2016 $4.9959% (84%)50,000 .. 100,0000%00:00 (00:00)
134 Sudden Strike 2 Gold May 22, 2017 $5.9959% (84%)20,000 .. 50,0000%00:00 (00:00)
135 Eador: Genesis Aug 7, 2009 $5.9959% (84%)50,000 .. 100,0000%00:00 (00:00)
136 Act of War: Direct Action Mar 14, 2005 $2.9959% (84%/82%)20,000 .. 50,0000%00:00 (00:00)
137 Ballistic Tanks Sep 20, 2016 $4.9959% (84%)0 .. 20,0000%00:00 (00:00)
138 Fat Chicken Dec 4, 2014 $9.99N/A (N/A)0 .. 20,0000%00:00 (00:00)
139 Last Knight: Rogue Rider Edition Oct 3, 2014 $7.9959% (84%)0 .. 20,0000%00:00 (00:00)
140 Child Of Ault Jan 24, 2017 $9.99N/A (N/A)0 .. 20,0003.85%00:16 (00:05)
141 Rack N Ruin Sep 1, 2015 $9.9957% (83%)0 .. 20,0000%00:00 (00:00)
142 Orbital Gear Aug 7, 2014 $0.9957% (83%/59%)200,000 .. 500,0000.99%01:33 (01:31)
143 Ace of Protectors Jun 27, 2016 $1.99N/A (N/A)0 .. 20,0002.78%06:08 (02:02)
144 Delta Force 2 Oct 31, 1999 $4.9957% (83%)50,000 .. 100,0000%00:00 (00:00)
145 TY the Tasmanian Tiger 4 Sep 17, 2015 $5.9957% (83%)0 .. 20,0000%00:00 (00:00)
146 Galaxy Admirals Jan 17, 2017 $1.9957% (83%)50,000 .. 100,0000.67%03:01 (01:00)
147 GIBZ Apr 7, 2017 $7.9957% (83%)0 .. 20,00025%01:12 (00:36)
148 Crush Your Enemies Jul 13, 2016 $9.9957% (83%/63%)20,000 .. 50,0000%00:00 (00:00)
149 Bulletstorm: Full Clip Edition Apr 7, 2017 $39.9957% (83%/76%)20,000 .. 50,0008.33%00:27 (00:17)
150 Legend (1994) Apr 1, 1994 $4.99N/A (N/A)0 .. 20,0000%00:00 (00:00)
151 Disciples Sacred Lands Gold Oct 4, 1999 $7.9957% (83%)50,000 .. 100,0000%00:00 (00:00)
152 NOBUNAGA'S AMBITION: Sphere of Influence Sep 1, 2015 $59.9957% (83%/70%)20,000 .. 50,0000%00:00 (00:00)
153 After The End: The Harvest Jun 2, 2017 $4.99N/A (N/A)20,000 .. 50,0000%00:00 (00:00)
154 htoL#NiQ: The Firefly Diary / htoL#NiQ-ホタルノニッキ- May 18, 2016 $9.9954% (82%)0 .. 20,0000%00:00 (00:00)
155 Fleet Command May 15, 1999 $9.9954% (82%)20,000 .. 50,0000%00:00 (00:00)
156 Shadow Ops: Red Mercury Sep 17, 2004 $6.9954% (82%/61%)20,000 .. 50,0000%00:00 (00:00)
157 Junk Jack Nov 30, 2016 $14.9952% (81%)0 .. 20,0000%00:00 (00:00)
158 Square Brawl Oct 22, 2015 $4.9952% (81%)0 .. 20,0000%00:00 (00:00)
159 In Verbis Virtus Apr 3, 2015 $19.9952% (81%)50,000 .. 100,0001.82%02:00 (00:40)
160 Defense Zone 3 Ultra HD Dec 14, 2016 $2.9952% (81%)0 .. 20,0000%00:00 (00:00)
161 Enemy Mind Jun 6, 2014 $9.9952% (81%)200,000 .. 500,0000.31%03:01 (01:00)
162 Age of Wonders Oct 2010 $5.9952% (81%)100,000 .. 200,0000%00:00 (00:00)
163 PixelJunk Shooter Ultimate Oct 21, 2015 $9.9952% (81%)0 .. 20,0000%00:00 (00:00)
164 Jim Power -The Lost Dimension Dec 10, 1993 $4.99N/A (N/A)0 .. 20,0000%00:00 (00:00)
165 She Wants Me Dead May 13, 2016 $7.9952% (81%)0 .. 20,0000%00:00 (00:00)
166 rymdkapsel Jan 30, 2014 $7.9952% (81%/77%)0 .. 20,0000%00:00 (00:00)
167 Toadled Sep 22, 2016 $0.4952% (81%)50,000 .. 100,0000.75%03:04 (01:21)
168 Perimeter May 21, 2004 $3.9950% (80%/77%)0 .. 20,0000%00:00 (00:00)
169 Run Rabbit Run Mar 31, 2016 $3.9950% (80%)0 .. 20,0000%00:00 (00:00)
170 ROD: Revolt Of Defense Aug 12, 2016 $0.9950% (80%)20,000 .. 50,0000%00:00 (00:00)
171 Graviteam Tactics: Operation Star Mar 22, 2012 $29.9950% (80%)20,000 .. 50,0000%00:00 (00:00)
172 Anomaly Warzone Earth Mobile Campaign Nov 6, 2013 $4.9950% (80%)100,000 .. 200,0000%00:00 (00:00)
173 Fate of the World Feb 28, 2011 $9.9950% (80%/70%)50,000 .. 100,0000%00:00 (00:00)
174 Gun Metal Sep 23, 2003 $2.9950% (80%)200,000 .. 500,0001.52%03:21 (03:52)
175 Conquest of Elysium 3 Oct 24, 2012 $4.9950% (80%)20,000 .. 50,0000%00:00 (00:00)
176 Umihara Kawase Shun: Steam Edition Nov 24, 2015 $11.99N/A (N/A)0 .. 20,0000%00:00 (00:00)
177 Dominions 3: The Awakening Sep 10, 2013 $19.9950% (80%/82%)0 .. 20,0000%00:00 (00:00)
178 Tiki Man Jun 4, 2015 $0.550% (80%)20,000 .. 50,0000%00:00 (00:00)
179 Trigger Runners Mar 3, 2016 $1.9950% (80%)0 .. 20,0000%00:00 (00:00)
180 7,62 High Calibre Aug 24, 2007 $4.9950% (80%)20,000 .. 50,0000%00:00 (00:00)
181 Weapon of Choice Sep 23, 2015 $4.99N/A (N/A)0 .. 20,0002.13%01:01 (00:20)
182 Age of Gladiators Feb 25, 2016 $9.9950% (80%)20,000 .. 50,0002.13%05:59 (01:59)
183 Ninjahtic Jul 6, 2015 $1.9950% (80%)0 .. 20,0000%00:00 (00:00)
184 Making History: The Calm & the Storm Mar 13, 2007 $4.9950% (80%/70%)50,000 .. 100,0000%00:00 (00:00)
185 Bloodsports.TV Mar 30, 2015 $9.9950% (80%/69%)50,000 .. 100,0000.88%03:02 (01:00)
186 Supreme Ruler 2020 Gold Jun 17, 2008 $9.9950% (80%/65%)50,000 .. 100,0000%00:00 (00:00)
187 Zeno Clash 2 Apr 30, 2013 $14.9950% (80%)200,000 .. 500,0000%00:00 (00:00)
188 Gatling Gears Aug 30, 2011 $9.9950% (80%)20,000 .. 50,0000%00:00 (00:00)
189 Anomaly 2 May 15, 2013 $14.9950% (80%/77%)50,000 .. 100,0000.78%02:11 (01:27)
190 Monday Night Combat Jan 24, 2011 $4.9950% (80%/82%)100,000 .. 200,0000.68%00:06 (00:02)
191 Legends of Callasia Jun 10, 2016 $14.9950% (80%)50,000 .. 100,0000%00:00 (00:00)
192 Interplanetary May 12, 2015 N/A50% (80%)100,000 .. 200,0000%00:00 (00:00)
193 Fortified Feb 3, 2016 $14.9948% (79%)0 .. 20,0008.33%00:05 (00:01)
194 Advent Rising Aug 9, 2005 $9.9948% (79%/70%)20,000 .. 50,0000%00:00 (00:00)
195 Protoshift Jan 15, 2016 $0.9948% (79%)0 .. 20,0000%00:00 (00:00)
196 David. Mar 14, 2014 $1.9948% (79%)50,000 .. 100,0000.83%04:32 (01:30)
197 Star Wolves 3: Civil War Mar 2, 2010 $4.9948% (79%)100,000 .. 200,0000%00:00 (00:00)
198 Zombie Party Jun 10, 2016 $9.9948% (79%)100,000 .. 200,0000%00:00 (00:00)
199 Fantasy Wars Aug 6, 2010 $4.9948% (79%/67%)50,000 .. 100,0000%00:00 (00:00)
200 Hail to the King: Deathbat Oct 30, 2014 $5.9948% (79%)0 .. 20,0000%00:00 (00:00)
201 Cultures - 8th Wonder of the World Mar 26, 2015 $4.9948% (79%)50,000 .. 100,0001.23%00:03 (00:01)
202 Vietnam ‘65 Mar 5, 2015 $9.9948% (79%/81%)20,000 .. 50,0000%00:00 (00:00)
203 Ironcast Mar 26, 2015 $14.9948% (79%/75%)20,000 .. 50,0000%00:00 (00:00)
204 Demolition Inc. Sep 19, 2011 $5.9948% (79%)50,000 .. 100,0000%00:00 (00:00)
205 TRON RUN/r Feb 16, 2016 $19.9948% (79%)0 .. 20,0000%00:00 (00:00)
206 Nuclear Dawn Sep 26, 2011 $9.9948% (79%/71%)200,000 .. 500,0000%00:00 (00:00)
207 Locoland Nov 22, 2003 $4.9948% (79%)0 .. 20,0000%00:00 (00:00)
208 Klang Sep 22, 2016 $14.9948% (79%/71%)0 .. 20,0000%00:00 (00:00)
209 TASTEE: Lethal Tactics May 10, 2016 $14.9948% (79%)20,000 .. 50,0003.64%03:17 (02:11)
210 Caster Mar 19, 2009 $1.9948% (79%)200,000 .. 500,0000%00:00 (00:00)
211 Dead Rising 2: Off the Record Oct 11, 2011 $19.9946% (78%/66%)200,000 .. 500,0001.28%01:50 (02:25)
212 Battle Mages: Sign of Darkness Apr 13, 2006 $4.9946% (78%)0 .. 20,0000%00:00 (00:00)
213 The Legend of Dark Witch Dec 1, 2015 $4.9946% (78%)20,000 .. 50,0000%00:00 (00:00)
214 Aeon Command Jul 3, 2014 $2.9946% (78%)20,000 .. 50,0000%00:00 (00:00)
215 Tank Destroyer Mar 9, 2017 $2.9946% (78%)20,000 .. 50,0003.33%01:21 (00:54)
216 Envoy Mar 17, 2016 $0.4946% (78%)50,000 .. 100,0000%00:00 (00:00)
217 Zombie Killtime Aug 4, 2015 $1.99N/A (N/A)0 .. 20,0000%00:00 (00:00)
218 Making History II: The War of the World Jun 22, 2010 $14.9946% (78%/38%)20,000 .. 50,0000%00:00 (00:00)
219 Battlezone Gold Edition May 11, 2017 $34.9946% (78%)0 .. 20,0000%00:00 (00:00)
220 Strike Suit Zero: Director's Cut Apr 8, 2014 $19.9946% (78%)20,000 .. 50,0000%00:00 (00:00)
221 Dangerous Waters Feb 7, 2006 $14.9946% (78%/82%)50,000 .. 100,0000%00:00 (00:00)
222 PAC-MAN and the Ghostly Adventures Oct 29, 2013 $19.9946% (78%)0 .. 20,0000%00:00 (00:00)
223 Vector Strain Dec 9, 2015 $4.99N/A (N/A)20,000 .. 50,0000%00:00 (00:00)
224 Curse of the Crescent Isle DX Aug 21, 2015 $4.9946% (78%)0 .. 20,0005.26%00:31 (00:10)
225 Star Realms Mar 8, 2016 Free46% (78%)100,000 .. 200,0000%00:00 (00:00)
226 Deadly 30 Jan 8, 2014 $4.9946% (78%)100,000 .. 200,0005.83%04:53 (04:48)
227 Pharaonic Apr 28, 2016 $9.7446% (78%)0 .. 20,0000%00:00 (00:00)
228 Starscape Mar 27, 2003 $7.9946% (78%)20,000 .. 50,0000%00:00 (00:00)
229 Mold on Pizza Sep 25, 2015 $4.1946% (78%)0 .. 20,0000%00:00 (00:00)
230 King of Dragon Pass Jul 28, 2015 $11.9944% (77%)20,000 .. 50,0000.98%11:36 (03:52)
231 A.R.E.S. Extinction Agenda EX Oct 3, 2014 $9.9944% (77%)0 .. 20,0000%00:00 (00:00)
232 Sky Gamblers: Storm Raiders Jan 7, 2015 $9.9944% (77%)0 .. 20,0000%00:00 (00:00)
233 The Political Machine 2016 Feb 4, 2016 $9.9944% (77%)50,000 .. 100,0001.32%00:03 (00:01)
234 Riddled Corpses Jun 2, 2015 $7.9944% (77%)20,000 .. 50,0001.61%00:08 (00:02)
235 Warlords Battlecry III May 17, 2004 $5.9944% (77%/73%)0 .. 20,0000%00:00 (00:00)
236 Bet On Soldier Sep 26, 2005 $7.9944% (77%)20,000 .. 50,0000%00:00 (00:00)
237 McDROID Sep 5, 2014 $9.9944% (77%)0 .. 20,0000%00:00 (00:00)
238 Painkiller Hell & Damnation Oct 31, 2012 $19.9944% (77%/64%)500,000 .. 1,000,0000.36%00:16 (00:05)
239 A Blind Legend Apr 7, 2016 $6.9944% (77%)0 .. 20,0000%00:00 (00:00)
240 Olympia Rising Jul 23, 2015 $4.9944% (77%)0 .. 20,0000%00:00 (00:00)
241 Mysterium: A Psychic Clue Game Jan 12, 2017 $9.9944% (77%)50,000 .. 100,0001.34%00:48 (00:31)
242 Rocketbirds 2 Evolution Jan 26, 2017 $9.9944% (77%)0 .. 20,0000%00:00 (00:00)
243 Warhammer 40,000: Armageddon Nov 26, 2014 $39.9944% (77%/68%)20,000 .. 50,0000%00:00 (00:00)
244 WARSHIFT Oct 12, 2016 $12.9942% (76%)20,000 .. 50,0000%00:00 (00:00)
245 Master Reboot Oct 29, 2013 $14.9942% (76%/59%)50,000 .. 100,0001.18%00:03 (00:01)
246 Starchaser: Priestess of the Night Sky Jul 24, 2015 $9.99N/A (N/A)0 .. 20,0000%00:00 (00:00)
247 Velocity 2X Aug 19, 2015 $19.9942% (76%)50,000 .. 100,0000%00:00 (00:00)
248 BloodRayne Sep 9, 2003 $9.9942% (76%/65%)50,000 .. 100,0000%00:00 (00:00)
249 Monster Monpiece Mar 14, 2017 $19.9942% (76%)20,000 .. 50,0003.33%04:23 (01:27)
250 Battle Time Sep 29, 2016 $0.9942% (76%)20,000 .. 50,0000%00:00 (00:00)
251 Z Jul 4, 2014 $6.9942% (76%)100,000 .. 200,0002.16%05:34 (06:30)
252 Star Hammer: The Vanguard Prophecy Jun 4, 2015 $19.9942% (76%/69%)0 .. 20,00016.67%01:29 (00:29)
253 Chaser Aug 22, 2003 $4.9942% (76%/66%)100,000 .. 200,0000%00:00 (00:00)
254 Cashtronauts Sep 1, 2016 $2.9942% (76%)0 .. 20,0000%00:00 (00:00)
255 Extravaganza Rising Jul 21, 2016 $5.99N/A (N/A)20,000 .. 50,0000%00:00 (00:00)
256 Heroes of Might & Magic V: Hammers of Fate Nov 14, 2006 $9.9942% (76%/66%)200,000 .. 500,0001.15%00:33 (00:11)
257 Livelock Aug 30, 2016 $9.9942% (76%/73%)20,000 .. 50,0002.13%00:01 (00:00)
258 Spirits of Xanadu Mar 26, 2015 $0.9942% (76%)20,000 .. 50,0001.56%01:29 (00:29)
259 Deadlings: Rotten Edition Nov 11, 2014 $3.9942% (76%)50,000 .. 100,0000%00:00 (00:00)
260 Rocket Knight May 11, 2010 $14.9942% (76%/63%)0 .. 20,0000%00:00 (00:00)
261 Heroes of Arca Feb 16, 2017 Free42% (76%)0 .. 20,0000%00:00 (00:00)
262 Victory At Sea Aug 8, 2014 $24.9940% (75%)20,000 .. 50,0000%00:00 (00:00)
263 Smell Of Death Jul 4, 2016 $9.9940% (75%)0 .. 20,0000%00:00 (00:00)
264 Corgi Warlock Dec 3, 2015 $0.4940% (75%)20,000 .. 50,0000%00:00 (00:00)
265 GEARGUNS Tank offensive Sep 22, 2016 $7.9940% (75%)20,000 .. 50,0001.33%02:07 (00:42)
266 BossConstructor Oct 24, 2016 $7.4940% (75%)0 .. 20,0000%00:00 (00:00)
267 Onechanbara Z2: Chaos Jun 2, 2016 $39.9940% (75%)0 .. 20,0000%00:00 (00:00)
268 Fist Puncher Jun 21, 2013 $9.9940% (75%/73%)20,000 .. 50,0002.13%00:26 (00:08)
269 CivCity: Rome Jul 24, 2006 $9.9940% (75%/67%)50,000 .. 100,0000%00:00 (00:00)
270 Albino Lullaby: Episode 1 Sep 15, 2015 $9.9940% (75%)20,000 .. 50,0000%00:00 (00:00)
271 Commander: The Great War Nov 12, 2012 $29.9940% (75%)0 .. 20,0000%00:00 (00:00)
272 Platformines Mar 28, 2014 $9.9940% (75%/67%)100,000 .. 200,0000%00:00 (00:00)
273 Perimeter: Emperor's Testament Aug 29, 2006 $3.99N/A (N/A/72%)20,000 .. 50,0000%00:00 (00:00)
274 FIVE: Champions of Canaan Sep 27, 2016 $3.9940% (75%)0 .. 20,0000%00:00 (00:00)
275 Zoo Empire Aug 1, 2004 $6.99N/A (N/A/59%)0 .. 20,0000%00:00 (00:00)
276 Pick a Hero Jun 9, 2016 $0.99N/A (N/A)0 .. 20,0000%00:00 (00:00)
277 Civil War II Sep 17, 2013 $39.9940% (75%)0 .. 20,0000%00:00 (00:00)
278 The Superfluous May 19, 2017 $4.99N/A (N/A)0 .. 20,0000%00:00 (00:00)
279 Making History: The Great War Jan 29, 2015 $29.9939% (74%)20,000 .. 50,0000%00:00 (00:00)
280 Supreme Ruler Ultimate Oct 17, 2014 $19.9939% (74%)20,000 .. 50,0000%00:00 (00:00)
281 Vampire of the Sands Jul 17, 2015 $4.9939% (74%)20,000 .. 50,0000%00:00 (00:00)
282 Banzai Escape Mar 16, 2016 $5.9939% (74%)0 .. 20,0000%00:00 (00:00)
283 Viktor Jun 13, 2014 $7.9939% (74%)20,000 .. 50,0000%00:00 (00:00)
284 FEIST Jul 23, 2015 $9.9939% (74%)20,000 .. 50,0000%00:00 (00:00)
285 Phoning Home Feb 7, 2017 $19.9939% (74%/61%)20,000 .. 50,0000%00:00 (00:00)
286 TableTop Soccer Apr 22, 2016 $0.9939% (74%)0 .. 20,0000%00:00 (00:00)
287 Othello Aug 5, 2016 $9.9939% (74%)0 .. 20,0000%00:00 (00:00)
288 Auro: A Monster-Bumping Adventure Apr 13, 2016 $6.9939% (74%)0 .. 20,0000%00:00 (00:00)
289 Hunting Unlimited 2008 Sep 1, 2007 $3.99N/A (N/A)20,000 .. 50,0000%00:00 (00:00)
290 VRZ: Torment Jun 9, 2016 $9.9939% (74%)0 .. 20,0000%00:00 (00:00)
291 Divinity: Dragon Commander Aug 6, 2013 $39.9939% (74%)100,000 .. 200,0000.65%01:10 (00:23)
292 Codex of Victory Mar 16, 2017 $14.9939% (74%)0 .. 20,0000%00:00 (00:00)
293 Sid Meier’s Ace Patrol Aug 27, 2013 $4.9939% (74%)500,000 .. 1,000,0000%00:00 (00:00)
294 Bubsy Two-Fur Jan 1, 1993 $1.9939% (74%)0 .. 20,0006.45%00:41 (00:27)
295 Ubersoldier II Jul 22, 2008 $9.9939% (74%/62%)100,000 .. 200,0000%00:00 (00:00)
296 Distant Worlds: Universe May 23, 2014 $59.9939% (74%/81%)20,000 .. 50,00011.11%12:09 (08:05)
297 LEGO Indiana Jones 2: The Adventure Continues Feb 18, 2010 $19.9937% (73%/66%)20,000 .. 50,0000%00:00 (00:00)
298 Death by Game Show Jan 22, 2016 $9.9937% (73%)20,000 .. 50,0001.67%01:16 (00:25)
299 Cast of the Seven Godsends - Redux Jul 20, 2015 $9.9937% (73%)20,000 .. 50,0001.28%03:21 (01:07)
300 Rex Rocket Aug 5, 2014 $4.9937% (73%)20,000 .. 50,0000%00:00 (00:00)
301 Hot Tin Roof: The Cat That Wore A Fedora Feb 20, 2015 $14.9937% (73%/66%)100,000 .. 200,0000%00:00 (00:00)
302 The Aquatic Adventure of the Last Human Jan 19, 2016 $9.9937% (73%/76%)0 .. 20,0000%00:00 (00:00)
303 Retrovirus Jan 31, 2013 $9.9937% (73%/70%)20,000 .. 50,0000%00:00 (00:00)
304 Cross of the Dutchman Sep 10, 2015 $8.9935% (72%/59%)20,000 .. 50,0000%00:00 (00:00)
305 Pongo May 14, 2015 $0.9935% (72%)50,000 .. 100,0001.12%01:26 (00:28)
306 rooMaze Mar 3, 2017 $1.9935% (72%)100,000 .. 200,0001.09%02:38 (01:45)
307 Rise & Shine Jan 13, 2017 $14.9935% (72%)20,000 .. 50,0001.75%02:45 (00:55)
308 King Arthur - The Role-playing Wargame Nov 24, 2009 $9.9935% (72%)200,000 .. 500,0000%00:00 (00:00)
309 Wyv and Keep: The Temple of the Lost Idol Aug 8, 2014 $14.9935% (72%)20,000 .. 50,0000%00:00 (00:00)
310 Gold Rush! Anniversary Nov 7, 2014 $5.9935% (72%)50,000 .. 100,0002.29%03:33 (04:31)
311 There Came an Echo Feb 24, 2015 $14.9935% (72%/58%)20,000 .. 50,0002.33%00:05 (00:01)
312 Alarameth TD Jun 23, 2015 $4.99N/A (N/A)0 .. 20,0000%00:00 (00:00)
313 Panzer Tactics HD May 22, 2014 $9.9935% (72%/69%)20,000 .. 50,0000%00:00 (00:00)
314 Airship Dragoon Aug 26, 2014 $19.99N/A (N/A)0 .. 20,0000%00:00 (00:00)
315 Heaven Forest NIGHTS Mar 14, 2017 $0.99N/A (N/A)100,000 .. 200,0001.42%02:16 (01:06)
316 Civil War: Battle of Petersburg Feb 8, 2017 $0.99N/A (N/A)0 .. 20,0002.08%00:10 (00:06)
317 Fatal Fight Jun 10, 2016 $2.9935% (72%)0 .. 20,0000%00:00 (00:00)
318 Smithy Jun 3, 2016 $3.99N/A (N/A)50,000 .. 100,0000%00:00 (00:00)
319 Battle Fleet 2 Nov 20, 2014 $14.9935% (72%)20,000 .. 50,0000%00:00 (00:00)
320 Pike and Shot : Campaigns Aug 13, 2015 $39.9935% (72%)0 .. 20,0000%00:00 (00:00)
321 Wildlife Park 2 - Crazy Zoo Mar 30, 2007 $3.99N/A (N/A)20,000 .. 50,0000%00:00 (00:00)
322 Warp Mar 21, 2012 $9.9935% (72%)20,000 .. 50,0000%00:00 (00:00)
323 The Last Federation Apr 18, 2014 $19.9935% (72%/72%)50,000 .. 100,0000%00:00 (00:00)
324 Cuban Missile Crisis May 6, 2005 $4.9935% (72%)20,000 .. 50,0000%00:00 (00:00)
325 Deadnaut Nov 27, 2014 $9.9935% (72%)0 .. 20,0000%00:00 (00:00)
326 Tom Clancy's EndWar Feb 25, 2009 $9.9934% (71%/68%)50,000 .. 100,0000%00:00 (00:00)
327 Elliot Quest Nov 10, 2014 $9.9934% (71%)20,000 .. 50,0000%00:00 (00:00)
328 Disney Planes Aug 6, 2013 $19.99N/A (N/A)0 .. 20,0000%00:00 (00:00)
329 Lux Delux May 1, 2015 $9.9934% (71%)20,000 .. 50,0000%00:00 (00:00)
330 A.R.E.S.: Extinction Agenda Jan 20, 2011 $4.9934% (71%/68%)50,000 .. 100,0000%00:00 (00:00)
331 Lost Planet: Extreme Condition Jun 26, 2007 $14.9934% (71%/66%)200,000 .. 500,0001.3%00:28 (00:09)
332 REDCON Apr 22, 2016 $5.9934% (71%)0 .. 20,0000%00:00 (00:00)
333 Space Colony: Steam Edition Apr 30, 2015 $14.9934% (71%/74%)20,000 .. 50,0000%00:00 (00:00)
334 Zombie Camp Aug 1, 2016 $1.99N/A (N/A)0 .. 20,0000%00:00 (00:00)
335 Revolution Under Siege Gold Jul 2, 2015 $24.9934% (71%)0 .. 20,0006.25%01:15 (00:25)
336 Incandescent Jun 30, 2015 $0.9932% (70%)20,000 .. 50,0000.81%13:42 (04:34)
337 Zombie City Defense 2 Aug 19, 2016 $9.9932% (70%)0 .. 20,0000%00:00 (00:00)
338 BitMaster Oct 12, 2016 $2.9932% (70%)100,000 .. 200,0000%00:00 (00:00)
339 Elven Legacy Apr 7, 2009 $4.9932% (70%/71%)50,000 .. 100,0000%00:00 (00:00)
340 Jagged Alliance 2 - Wildfire Mar 8, 2004 $6.9932% (70%)100,000 .. 200,0001.2%07:23 (07:14)
341 Alea Jacta Est Sep 27, 2012 $24.9930% (69%)0 .. 20,0000%00:00 (00:00)
342 Brigade E5: New Jagged Union Oct 17, 2006 $3.9930% (69%/41%)0 .. 20,0000%00:00 (00:00)
343 YAIBA: NINJA GAIDEN Z Mar 21, 2014 $29.9930% (69%/49%)20,000 .. 50,0000%00:00 (00:00)
344 Collapse Sep 25, 2008 $1.9930% (69%)20,000 .. 50,0000%00:00 (00:00)
345 1775: Rebellion Sep 29, 2016 $24.99N/A (N/A)0 .. 20,0005.26%00:49 (00:16)
346 Quick Slick Deadly Sep 21, 2015 $1.9930% (69%)20,000 .. 50,0000%00:00 (00:00)
347 Spud's Quest Jul 31, 2014 $7.99N/A (N/A)0 .. 20,0000%00:00 (00:00)
348 UnSummoning: the Spectral Horde Dec 21, 2015 $3.99N/A (N/A)0 .. 20,0000%00:00 (00:00)
349 Guns n Zombies Oct 30, 2014 $0.7930% (69%)100,000 .. 200,0000%00:00 (00:00)
350 Warrior Kings Apr 13, 2002 $9.9930% (69%/73%)0 .. 20,0000%00:00 (00:00)
351 FIVE: Guardians of David Nov 24, 2015 $9.9930% (69%/66%)0 .. 20,0000%00:00 (00:00)
352 Strategy & Tactics: Wargame Collection Apr 22, 2016 $9.9930% (69%)20,000 .. 50,0000.92%04:32 (01:30)
353 Space Food Truck Mar 25, 2016 $9.9930% (69%)0 .. 20,0000%00:00 (00:00)
354 RISK: Factions Mar 8, 2011 $9.9930% (69%/77%)50,000 .. 100,0000%00:00 (00:00)
355 The Nightmare Cooperative Jul 16, 2014 $4.9930% (69%)20,000 .. 50,0000%00:00 (00:00)
356 Sol 0: Mars Colonization Jan 15, 2016 $3.9930% (69%)20,000 .. 50,0000%00:00 (00:00)
357 Pigmentone Jul 8, 2016 $0.49N/A (N/A)0 .. 20,0000%00:00 (00:00)
358 ManaCollect Apr 17, 2015 $6.9929% (68%)0 .. 20,0000%00:00 (00:00)
359 Crazy Forest Jul 6, 2016 $4.9929% (68%)100,000 .. 200,0000%00:00 (00:00)
360 Stonerid Dec 18, 2013 $4.9929% (68%)50,000 .. 100,0000%00:00 (00:00)
361 Fair Strike Feb 5, 2004 $3.99N/A (N/A/56%)0 .. 20,0000%00:00 (00:00)
362 Toren May 11, 2015 $9.9929% (68%/57%)50,000 .. 100,0001%03:33 (01:11)
363 Warhammer 40,000: Armageddon - Da Orks Aug 18, 2016 $19.99N/A (N/A)0 .. 20,00025%00:02 (00:00)
364 Theatre of War 2: Africa 1943 Apr 24, 2009 $4.9927% (67%/63%)100,000 .. 200,0000%00:00 (00:00)
365 8-Bit Commando Jul 27, 2011 $2.9927% (67%)50,000 .. 100,0000%00:00 (00:00)
366 Zafehouse: Diaries Sep 6, 2013 $1.9927% (67%)50,000 .. 100,0000%00:00 (00:00)
367 Survivor Squad: Gauntlets Nov 16, 2015 $4.9927% (67%)20,000 .. 50,0000%00:00 (00:00)
368 The Hive Aug 25, 2016 $9.9927% (67%)20,000 .. 50,0000%00:00 (00:00)
369 Scourge: Outbreak Apr 2, 2014 $7.9927% (67%)100,000 .. 200,0000%00:00 (00:00)
370 Toy Odyssey: The Lost and Found Sep 20, 2016 $14.9927% (67%/66%)50,000 .. 100,0000.88%02:57 (00:59)
371 Chainsaw Warrior Oct 7, 2013 $4.9927% (67%)100,000 .. 200,0000%00:00 (00:00)
372 Kill The Plumber Dec 31, 2015 $4.9927% (67%)0 .. 20,0000%00:00 (00:00)
373 Royal Defense Nov 6, 2014 $0.4927% (67%)50,000 .. 100,0000%00:00 (00:00)
374 Sengoku Sep 15, 2011 $9.9927% (67%/70%)100,000 .. 200,0000%00:00 (00:00)
375 Nomad Fleet Jul 14, 2015 $9.9927% (67%)0 .. 20,0000%00:00 (00:00)
376 The Living Dungeon Nov 2, 2015 $12.9926% (66%)0 .. 20,0002.63%00:32 (00:10)
377 Sky To Fly: Faster Than Wind Mar 25, 2016 $3.9926% (66%)0 .. 20,0000%00:00 (00:00)
378 Assassin’s Creed Chronicles: India Jan 12, 2016 $9.9926% (66%)20,000 .. 50,00010%11:30 (07:39)
379 Men of War: Condemned Heroes Apr 12, 2012 $7.9926% (66%/57%)100,000 .. 200,0000%00:00 (00:00)
380 Mad Combat Marines Jul 13, 2016 $0.9926% (66%)20,000 .. 50,0000%00:00 (00:00)
381 1849 May 8, 2014 $14.9926% (66%)20,000 .. 50,0000%00:00 (00:00)
382 Bedlam Oct 13, 2015 $12.9926% (66%/54%)100,000 .. 200,0005.71%03:38 (05:22)
383 Commander Cool 2 Dec 17, 2015 $2.9926% (66%)20,000 .. 50,0000%00:00 (00:00)
384 7th Legion Jan 1, 1997 $6.9926% (66%)0 .. 20,0000%00:00 (00:00)
385 Spirit of War Mar 12, 2015 $9.9925% (65%)0 .. 20,0000%00:00 (00:00)
386 Hunters Of The Dead Sep 4, 2014 $4.9925% (65%)20,000 .. 50,0000%00:00 (00:00)
387 Malebolgia May 6, 2015 $12.9925% (65%)0 .. 20,0000%00:00 (00:00)
388 Marauder Sep 10, 2009 $9.9925% (65%)20,000 .. 50,0000%00:00 (00:00)
389 Platypus II Mar 17, 2007 $6.9925% (65%)200,000 .. 500,0002.15%03:22 (02:59)
390 Devil's Dare 悪魔の挑戦 Oct 21, 2014 $12.9925% (65%)20,000 .. 50,0000%00:00 (00:00)
391 Ground Breakers Jun 15, 2016 $4.99N/A (N/A)0 .. 20,0000%00:00 (00:00)
392 Theatre of War 2: Kursk 1943 Mar 9, 2010 $4.9925% (65%)50,000 .. 100,0000%00:00 (00:00)
393 Zombie Tycoon 2: Brainhov's Revenge Dec 9, 2013 $4.9925% (65%)50,000 .. 100,0000%00:00 (00:00)
394 Infinity Runner Jul 14, 2014 $6.9925% (65%/56%)0 .. 20,0000%00:00 (00:00)
395 The Seven Years War (1756-1763) Oct 30, 2015 $19.9925% (65%)0 .. 20,0000%00:00 (00:00)
396 Disney Pirates of the Caribbean: At Worlds End May 22, 2007 $19.9925% (65%)0 .. 20,0000%00:00 (00:00)
397 March of the Eagles Feb 18, 2013 $19.9925% (65%/71%)50,000 .. 100,0000%00:00 (00:00)
398 Frozen Synapse Prime Nov 14, 2014 $24.9925% (65%/83%)100,000 .. 200,0000.62%00:25 (00:08)
399 Battle Worlds: Kronos Nov 4, 2013 $19.9924% (64%/71%)20,000 .. 50,0000%00:00 (00:00)
400 A Game of Dwarves Oct 23, 2012 $9.9924% (64%/60%)50,000 .. 100,0000%00:00 (00:00)
401 Urban Pirate Jun 17, 2016 $6.99N/A (N/A)0 .. 20,0000%00:00 (00:00)
402 SPACECOM Sep 17, 2014 $9.9924% (64%/68%)100,000 .. 200,0000.49%00:48 (00:16)
403 Double Dragon IV Jan 30, 2017 $6.9924% (64%/50%)0 .. 20,0000%00:00 (00:00)
404 Rise: Battle Lines Nov 17, 2015 $1.9924% (64%)0 .. 20,0000%00:00 (00:00)
405 Jagged Alliance: Crossfire Aug 24, 2012 $14.9924% (64%/63%)100,000 .. 200,0000%00:00 (00:00)
406 Link Apr 22, 2016 $4.99N/A (N/A)0 .. 20,0000%00:00 (00:00)
407 Warlock 2: The Exiled Apr 10, 2014 $19.9924% (64%/73%)50,000 .. 100,0000%00:00 (00:00)
408 Zoo Rampage Jul 9, 2014 $3.9924% (64%)0 .. 20,0000%00:00 (00:00)
409 Revenge of Roger Rouge Apr 22, 2016 $0.99N/A (N/A)20,000 .. 50,0001.6%03:55 (03:01)
410 Kaiju-A-GoGo Apr 23, 2015 $9.9924% (64%)20,000 .. 50,0000%00:00 (00:00)
411 Pixel Boy and the Ever Expanding Dungeon May 30, 2014 $0.9922% (63%)20,000 .. 50,0000%00:00 (00:00)
412 Beasts Battle Jun 15, 2016 $1.9922% (63%)0 .. 20,0000%00:00 (00:00)
413 War, the Game Jan 12, 2015 $6.9922% (63%/65%)20,000 .. 50,0000%00:00 (00:00)
414 Will Fight for Food: Super Actual Sellout: Game of the Hour Apr 22, 2015 $5.9922% (63%)0 .. 20,0000%00:00 (00:00)
415 Port Royale 2 Apr 30, 2004 $0.9922% (63%/75%)50,000 .. 100,0002.94%00:42 (00:14)
416 Desert Ashes Nov 10, 2014 $4.9922% (63%)20,000 .. 50,0000%00:00 (00:00)
417 Disney Epic Mickey 2: The Power of Two Nov 18, 2012 $19.9921% (62%)20,000 .. 50,0000%00:00 (00:00)
418 4089: Ghost Within Jan 9, 2015 $5.9921% (62%)0 .. 20,0000%00:00 (00:00)
419 Flashback Oct 1, 2013 $9.9921% (62%)20,000 .. 50,0000%00:00 (00:00)
420 My Super Tower 2 Jan 27, 2017 $0.49N/A (N/A)0 .. 20,0000%00:00 (00:00)
421 Spice Road Apr 24, 2014 $19.9921% (62%)0 .. 20,0000%00:00 (00:00)
422 Bombshell Jan 29, 2016 $34.9921% (62%)0 .. 20,0000%00:00 (00:00)
423 Goblin Defenders: Steel‘n’ Wood Aug 21, 2013 $2.9921% (62%)20,000 .. 50,0000%00:00 (00:00)
424 Battleplan: American Civil War Jul 4, 2014 $9.9921% (62%/66%)100,000 .. 200,0001.61%04:38 (03:52)
425 Sorcerer King: Rivals Sep 22, 2016 $14.9921% (62%)20,000 .. 50,0001.12%01:02 (00:20)
426 BattleLore: Command Nov 25, 2014 $6.9921% (62%)0 .. 20,0000%00:00 (00:00)
427 The Few Jun 18, 2014 $7.9921% (62%)20,000 .. 50,0000%00:00 (00:00)
428 Hyperspace Pinball Sep 30, 2015 $2.99N/A (N/A)0 .. 20,0000%00:00 (00:00)
429 Freight Tycoon Inc. Aug 15, 2007 $4.9921% (62%)20,000 .. 50,0000%00:00 (00:00)
430 Supreme Ruler: Cold War Jul 29, 2011 $9.9921% (62%/63%)20,000 .. 50,0000%00:00 (00:00)
431 Purgatory Jun 22, 2016 $0.9920% (61%)200,000 .. 500,0000.18%02:03 (01:10)
432 Legions of Steel Jul 16, 2015 $19.99N/A (N/A/64%)0 .. 20,0000%00:00 (00:00)
433 Quarantine May 24, 2017 $9.9920% (61%)0 .. 20,0000%00:00 (00:00)
434 Men of War: Vietnam Sep 8, 2011 $7.9920% (61%/68%)100,000 .. 200,0000%00:00 (00:00)
435 To End All Wars Aug 29, 2014 $39.9920% (61%/71%)0 .. 20,0000%00:00 (00:00)
436 E.T. Armies Mar 3, 2016 $14.9920% (61%/54%)0 .. 20,0000%00:00 (00:00)
437 Life in Bunker Feb 25, 2016 $15.9919% (60%)0 .. 20,0000%00:00 (00:00)
438 Patrician IV - Steam Special Edition Sep 17, 2010 $14.9919% (60%/66%)100,000 .. 200,0001.15%13:16 (04:25)
439 Disciples III - Renaissance Steam Special Edition Jul 16, 2010 $14.9919% (60%/56%)100,000 .. 200,0000%00:00 (00:00)
440 Merchants of Kaidan Nov 10, 2014 $14.9919% (60%)100,000 .. 200,0000%00:00 (00:00)
441 Grim Seventh Jan 20, 2017 FreeN/A (N/A)0 .. 20,0006.25%15:36 (05:12)
442 Skyshine's BEDLAM Sep 16, 2015 $19.9919% (60%/67%)20,000 .. 50,0000%00:00 (00:00)
443 Call of Duty: Black Ops - Mac Edition Sep 27, 2012 $19.9919% (60%)50,000 .. 100,0000%00:00 (00:00)
444 7 Grand Steps: What Ancients Begat Jun 7, 2013 $19.9919% (60%)100,000 .. 200,0000%00:00 (00:00)
445 Close Combat - Panthers in the Fog Nov 19, 2012 $39.9919% (60%)0 .. 20,0000%00:00 (00:00)
446 DreamBreak Jul 21, 2016 $6.9919% (60%/46%)0 .. 20,0000%00:00 (00:00)
447 Hybrid Wars Sep 29, 2016 $17.9919% (60%/54%)0 .. 20,0000%00:00 (00:00)
448 Overruled! Sep 15, 2015 $12.9919% (60%)20,000 .. 50,0000%00:00 (00:00)
449 Code of Princess Apr 14, 2016 $14.9919% (60%/53%)0 .. 20,0000%00:00 (00:00)
450 Dawn of Andromeda May 4, 2017 $29.9919% (60%/70%)0 .. 20,0000%00:00 (00:00)
451 Stay Dead Evolution Feb 4, 2015 $5.9919% (60%)20,000 .. 50,0001.64%04:34 (01:31)
452 Super Helmets on Fire DX Ultra Edition Plus Alpha Feb 15, 2016 $0.99N/A (N/A)0 .. 20,0000%00:00 (00:00)
453 Cemetery Warrior 3 Feb 3, 2017 $0.4918% (59%)50,000 .. 100,0000.9%03:54 (02:36)
454 Ninjahtic Mind Tricks Jul 16, 2015 $1.99N/A (N/A)0 .. 20,0000%00:00 (00:00)
455 VR Journey Dec 15, 2016 $2.9918% (59%)20,000 .. 50,0000%00:00 (00:00)
456 Prospekt Feb 18, 2016 $9.9918% (59%)20,000 .. 50,0000%00:00 (00:00)
457 Antisquad Oct 31, 2014 $5.9918% (59%)50,000 .. 100,00012.7%08:32 (09:21)
458 Armada 2526 Gold Edition Feb 28, 2013 $19.9918% (59%/66%)20,000 .. 50,0000%00:00 (00:00)
459 Ceres Oct 16, 2015 $19.9918% (59%/74%)0 .. 20,0000%00:00 (00:00)
460 Woolfe - The Red Hood Diaries Mar 17, 2015 $9.9918% (59%/55%)50,000 .. 100,0000%00:00 (00:00)
461 Check vs Mate Aug 16, 2012 $2.9917% (58%/69%)0 .. 20,0000%00:00 (00:00)
462 Sir! I'd Like To Report A Bug! Oct 19, 2015 $1.99N/A (N/A)0 .. 20,0000%00:00 (00:00)
463 Adventure World Aug 2, 2016 $4.99N/A (N/A)0 .. 20,0000%00:00 (00:00)
464 Heavy Fire: Afghanistan Aug 15, 2014 $2.9917% (58%)20,000 .. 50,0000%00:00 (00:00)
465 Colonial Conquest Jul 28, 2015 $9.9917% (58%)0 .. 20,0000%00:00 (00:00)
466 Prophour23 Oct 22, 2014 $9.9917% (58%)0 .. 20,0000%00:00 (00:00)
467 Wanderlust Adventures Aug 10, 2015 $9.9917% (58%)20,000 .. 50,0000%00:00 (00:00)
468 Assault on Arnhem Mar 11, 2016 $9.99N/A (N/A)0 .. 20,0000%00:00 (00:00)
469 Woodle Tree 2: Worlds Sep 16, 2016 $3.9916% (57%)20,000 .. 50,0001.54%23:41 (07:53)
470 Unearthed: Trail of Ibn Battuta - Episode 1 - Gold Edition Jan 3, 2014 $4.9916% (57%)20,000 .. 50,0000%00:00 (00:00)
471 Defend Your Crypt Jul 21, 2016 $2.99N/A (N/A)0 .. 20,0000%00:00 (00:00)
472 Gates of Horizon Dec 18, 2014 $9.9916% (57%)0 .. 20,0000%00:00 (00:00)
473 Rise of Venice Sep 27, 2013 $19.9916% (57%/66%)50,000 .. 100,0000%00:00 (00:00)
474 Defence to death May 11, 2017 $0.67N/A (N/A)50,000 .. 100,0000.29%01:00 (00:20)
475 Delve Deeper Sep 24, 2010 $4.9915% (56%)50,000 .. 100,0000%00:00 (00:00)
476 Gnumz: Masters of Defense Dec 21, 2015 $0.4915% (56%)20,000 .. 50,0000.98%06:16 (04:10)
477 Abalone Apr 23, 2014 $4.9915% (56%)0 .. 20,0000%00:00 (00:00)
478 reconquest Dec 16, 2016 $11.9915% (56%)0 .. 20,0000%00:00 (00:00)
479 Horizon Feb 6, 2014 $29.9915% (56%)50,000 .. 100,0000%00:00 (00:00)
480 Gettysburg: The Tide Turns Jul 14, 2017 $9.99N/A (N/A)0 .. 20,0000%00:00 (00:00)
481 BC Kings Sep 15, 2008 $4.9914% (55%)20,000 .. 50,0000%00:00 (00:00)
482 Sovereignty: Crown of Kings Feb 2, 2017 $24.9914% (55%)0 .. 20,0000%00:00 (00:00)
483 Pain Train Jan 11, 2017 $0.9914% (55%)20,000 .. 50,0001.14%08:57 (02:59)
484 Tic-Toc-Tower Sep 28, 2015 $2.9914% (54%)0 .. 20,0000%00:00 (00:00)
485 Wickland Nov 14, 2014 $0.9914% (54%)50,000 .. 100,0000%00:00 (00:00)
486 RESCUE 2: Everyday Heroes Jun 3, 2015 $19.9913% (53%)20,000 .. 50,0000%00:00 (00:00)
487 Story Of the Survivor Feb 17, 2016 $4.99N/A (N/A)0 .. 20,0000%00:00 (00:00)
488 The Stalin Subway Oct 5, 2006 $0.5113% (53%)0 .. 20,0000%00:00 (00:00)
489 Nightside Apr 2, 2015 $9.9913% (53%)20,000 .. 50,0000%00:00 (00:00)
490 Aegis Oct 6, 2016 $2.99N/A (N/A)0 .. 20,0000%00:00 (00:00)
491 Armada 2526 Jun 10, 2010 $14.99N/A (N/A/66%)0 .. 20,0000%00:00 (00:00)
492 Urja Jan 9, 2015 $9.9913% (53%)20,000 .. 50,0000%00:00 (00:00)
493 Smugglers 5 Apr 11, 2014 $9.9913% (53%)20,000 .. 50,0001.89%01:02 (00:20)
494 The Campaign Series: Fall Weiss May 30, 2014 $2.2412% (52%)20,000 .. 50,0000%00:00 (00:00)
495 Royal Bounty HD Aug 10, 2015 $2.9912% (52%)0 .. 20,0000%00:00 (00:00)
496 Crusaders: Thy Kingdom Come Oct 8, 2009 $9.99N/A (N/A)20,000 .. 50,0000%00:00 (00:00)
497 Biodrone Battle Jul 16, 2015 $1.9912% (52%)100,000 .. 200,0000%00:00 (00:00)
498 Scapeland Mar 31, 2016 $3.9912% (52%)0 .. 20,0000%00:00 (00:00)
499 Meridian: New World Apr 4, 2014 $6.9912% (52%/43%)50,000 .. 100,0000%00:00 (00:00)
500 Guncraft Aug 9, 2013 $14.9912% (51%/73%)100,000 .. 200,0000%00:00 (00:00)
501 Dusty Revenge:Co-Op Edition Feb 17, 2014 $14.9912% (51%)50,000 .. 100,0000%00:00 (00:00)
502 Marvel: Ultimate Alliance 2 Jul 26, 2016 $39.9912% (51%)0 .. 20,0000%00:00 (00:00)
503 MinosMaze - The Minotaur's Labyrinth May 1, 2017 $4.99N/A (N/A)0 .. 20,0000%00:00 (00:00)
504 PeriAreion Feb 19, 2015 $5.99N/A (N/A)0 .. 20,0000%00:00 (00:00)
505 Odd||Even Apr 6, 2016 $0.9911% (50%)20,000 .. 50,0000%00:00 (00:00)
506 No Pineapple Left Behind Feb 18, 2016 $9.99N/A (N/A/59%)0 .. 20,0000%00:00 (00:00)
507 MDK2 HD Jul 30, 2012 $14.9911% (50%/73%)0 .. 20,0000%00:00 (00:00)
508 Albedo: Eyes from Outer Space Apr 10, 2015 $14.9911% (50%/66%)50,000 .. 100,0000%00:00 (00:00)
509 Castle Werewolf 3D Feb 7, 2017 $2.9911% (50%)50,000 .. 100,0009.91%04:19 (04:26)
510 Weather Lord: The Successor's Path Apr 8, 2015 $4.99N/A (N/A)0 .. 20,0000%00:00 (00:00)
511 Kidnapped Aug 4, 2015 $2.9910% (49%)100,000 .. 200,0000%00:00 (00:00)
512 ALONE IN SPACE Feb 27, 2016 $9.9910% (48%)0 .. 20,0000%00:00 (00:00)
513 Aggression: Europe Under Fire May 10, 2007 $9.9910% (48%)0 .. 20,0000%00:00 (00:00)
514 Star Traders: 4X Empires Nov 18, 2014 $9.9910% (48%)0 .. 20,0000%00:00 (00:00)
515 Meridian: Squad 22 Aug 11, 2016 $14.9910% (48%)0 .. 20,0000%00:00 (00:00)
516 HitBox Jan 30, 2017 Free10% (48%)0 .. 20,0000%00:00 (00:00)
517 Z Steel Soldiers Aug 1, 2014 $12.9910% (48%)50,000 .. 100,0003.25%04:27 (06:45)
518 Rubber and Lead Sep 4, 2015 $4.9910% (48%)20,000 .. 50,0000%00:00 (00:00)
519 Synonymy Dec 12, 2014 $1.9910% (48%)0 .. 20,0000%00:00 (00:00)
520 Hell Nov 13, 2014 $29.99N/A (N/A)0 .. 20,0000%00:00 (00:00)
521 Island Defense Jul 23, 2015 $1.999% (47%)50,000 .. 100,0000.41%04:31 (01:30)
522 Crossfire: Dungeons Jan 15, 2007 $3.999% (47%)0 .. 20,0000%00:00 (00:00)
523 Disposable Heroes Oct 1, 2015 $4.999% (47%)0 .. 20,0002.17%05:09 (01:43)
524 Blasting Agent: Ultimate Edition Aug 17, 2016 $2.99N/A (N/A)0 .. 20,0000%00:00 (00:00)
525 Hero Generations Apr 10, 2015 $5.999% (47%)0 .. 20,0000%00:00 (00:00)
526 The Stalin Subway: Red Veil Oct 5, 2006 $0.59% (46%)20,000 .. 50,0002.86%00:01 (00:00)
527 Megamagic: Wizards of the Neon Age Apr 20, 2016 $9.999% (46%/67%)0 .. 20,0001.75%06:06 (02:02)
528 Redemption: Saints And Sinners Nov 18, 2016 $0.999% (46%)50,000 .. 100,0000.49%03:15 (01:05)
529 Magic Quest May 6, 2016 $1.99N/A (N/A)50,000 .. 100,0000.84%05:02 (03:21)
530 Commander: Conquest of the Americas Jul 30, 2010 $9.999% (46%/68%)50,000 .. 100,0000%00:00 (00:00)
531 The Bluecoats: North vs South May 10, 2012 $4.998% (45%)20,000 .. 50,0000%00:00 (00:00)
532 Carrier Command: Gaea Mission Sep 28, 2012 $32.998% (45%/60%)50,000 .. 100,0000%00:00 (00:00)
533 World War 2: Time of Wrath Jun 15, 2009 $4.998% (45%)20,000 .. 50,0000%00:00 (00:00)
534 Chronostorm: Siberian Border Apr 2, 2009 $0.99N/A (N/A)0 .. 20,0000%00:00 (00:00)
535 Vendetta - Curse of Raven's Cry Nov 20, 2015 $8.998% (44%)0 .. 20,0000%00:00 (00:00)
536 Nux Dec 26, 2006 $6.998% (44%)100,000 .. 200,0001.11%03:15 (04:36)
537 Impire Feb 14, 2013 $19.998% (44%/45%)100,000 .. 200,0000%00:00 (00:00)
538 DUNGEONS - Steam Special Edition Feb 10, 2011 $9.997% (43%/65%)200,000 .. 500,0000%00:00 (00:00)
539 Skyward Collapse May 23, 2013 $4.997% (43%/64%)50,000 .. 100,0000%00:00 (00:00)
540 Pride of Nations Jun 8, 2011 $19.997% (43%/70%)20,000 .. 50,0000%00:00 (00:00)
541 The Entente Gold Aug 11, 2003 $1.997% (42%)50,000 .. 100,0000%00:00 (00:00)
542 Samudai Feb 9, 2015 $2.997% (42%)20,000 .. 50,0000%00:00 (00:00)
543 Heavy Fire: Shattered Spear Oct 23, 2015 $3.99N/A (N/A)0 .. 20,0000%00:00 (00:00)
544 Sword of the Stars II: Enhanced Edition Nov 30, 2012 $19.997% (42%/65%)100,000 .. 200,0000%00:00 (00:00)
545 Burstfire Sep 24, 2015 N/A7% (42%)50,000 .. 100,0001%00:32 (00:10)
546 Rulers of Nations Jul 16, 2014 $19.997% (41%/63%)0 .. 20,0000%00:00 (00:00)
547 Control Craft 2 Feb 15, 2016 $0.57% (41%)0 .. 20,0005.41%03:31 (02:20)
548 Lost in Paradise Aug 20, 2015 $2.997% (41%)20,000 .. 50,0000%00:00 (00:00)
549 Hydraulic Empire Jul 31, 2015 $7.997% (41%)0 .. 20,0000%00:00 (00:00)
550 Wave of Darkness Nov 5, 2015 $29.997% (41%)0 .. 20,0000%00:00 (00:00)
551 Infection: Humanity's Last Gasp May 26, 2016 $9.99N/A (N/A)0 .. 20,0000%00:00 (00:00)
552 R.I.P.D.: The Game Jul 16, 2013 $9.996% (40%)20,000 .. 50,0000%00:00 (00:00)
553 Devils & Demons Oct 6, 2015 $9.996% (40%)20,000 .. 50,0000%00:00 (00:00)
554 Dead But Alive! Southern England Oct 2, 2015 $14.996% (40%)0 .. 20,0000%00:00 (00:00)
555 The Kings' Crusade Oct 8, 2010 $9.996% (40%/71%)50,000 .. 100,0000%00:00 (00:00)
556 Dungeons - The Dark Lord Sep 27, 2011 $19.996% (39%/72%)100,000 .. 200,0000%00:00 (00:00)
557 Pain Train 2 Mar 16, 2017 $6.996% (39%)0 .. 20,0000%00:00 (00:00)
558 Zombie Apocalypse: Escape The Undead City Nov 25, 2013 $0.996% (39%)0 .. 20,0000%00:00 (00:00)
559 Dark Matter Oct 17, 2013 $9.996% (39%)0 .. 20,0000%00:00 (00:00)
560 Gratuitous Space Battles 2 Apr 16, 2015 $9.995% (38%)20,000 .. 50,0000%00:00 (00:00)
561 Strategic War in Europe Mar 21, 2014 $14.995% (38%)20,000 .. 50,0000%00:00 (00:00)
562 Mechs & Mercs: Black Talons Jan 9, 2015 $9.995% (38%)0 .. 20,0000%00:00 (00:00)
563 Risk Jun 10, 2013 $9.995% (38%)20,000 .. 50,0000%00:00 (00:00)
564 Tiamat X May 29, 2015 $1.995% (37%)20,000 .. 50,0000%00:00 (00:00)
565 Stellar Impact Apr 12, 2012 $9.995% (37%/74%)50,000 .. 100,0001.27%03:32 (01:10)
566 Kick-Ass 2 Aug 15, 2014 $19.995% (36%)0 .. 20,0000%00:00 (00:00)
567 Urban Empire Jan 20, 2017 $29.994% (35%/62%)50,000 .. 100,0000%00:00 (00:00)
568 Fallen: A2P Protocol Aug 14, 2015 $9.994% (35%)20,000 .. 50,0000%00:00 (00:00)
569 Blue Sheep Mar 31, 2016 $1.99N/A (N/A)0 .. 20,0000%00:00 (00:00)
570 Knight Adventure Oct 15, 2015 $0.99N/A (N/A)20,000 .. 50,0000%00:00 (00:00)
571 Shadows of War Sep 19, 2014 $2.994% (34%)20,000 .. 50,0000%00:00 (00:00)
572 Arma Tactics Oct 1, 2013 $8.994% (34%/47%)200,000 .. 500,0000%00:00 (00:00)
573 CTU: Counter Terrorism Unit Apr 22, 2016 $14.994% (34%)0 .. 20,0000%00:00 (00:00)
574 Into the Void Dec 4, 2015 $4.994% (34%)20,000 .. 50,0000%00:00 (00:00)
575 Ranger of the jungle Jul 16, 2016 $3.99N/A (N/A)0 .. 20,0000%00:00 (00:00)
576 Jagged Alliance Flashback Oct 21, 2014 $19.994% (33%)20,000 .. 50,0000%00:00 (00:00)
577 Sim Junta Aug 18, 2015 $1.994% (33%)0 .. 20,0000%00:00 (00:00)
578 Disciples III - Resurrection Oct 11, 2011 $14.994% (32%/63%)100,000 .. 200,0000%00:00 (00:00)
579 Ground Pounders Jul 15, 2014 $4.99N/A (N/A)0 .. 20,0000%00:00 (00:00)
580 Robotex Nov 18, 2014 $4.993% (31%)100,000 .. 200,0000%00:00 (00:00)
581 - Arcane RERaise - Apr 4, 2017 $2.99N/A (N/A)200,000 .. 500,00029.93%04:02 (04:12)
582 Zombie Zoeds May 20, 2015 $4.993% (31%)200,000 .. 500,0000%00:00 (00:00)
583 Psichodelya Aug 8, 2014 $1.993% (31%)100,000 .. 200,0001.37%04:59 (04:59)
584 Ku: Shroud of the Morrigan Mar 17, 2014 $4.993% (31%)0 .. 20,0000%00:00 (00:00)
585 Evopollution Apr 23, 2014 $4.993% (31%)0 .. 20,0000%00:00 (00:00)
586 A Game of Thrones - Genesis Sep 29, 2011 $9.993% (30%)100,000 .. 200,0000%00:00 (00:00)
587 Tank Operations: European Campaign Nov 22, 2013 $14.993% (30%)20,000 .. 50,0000%00:00 (00:00)
588 Power of Defense Aug 4, 2010 $9.99N/A (N/A)0 .. 20,0000%00:00 (00:00)
589 Defenders of Time Nov 4, 2014 N/AN/A (N/A/55%)0 .. 20,0000%00:00 (00:00)
590 Solar Shifter EX Sep 11, 2015 $4.993% (28%)0 .. 20,0000%00:00 (00:00)
591 Gridberd Sep 7, 2015 $6.992% (26%)200,000 .. 500,0000.18%00:45 (00:15)
592 Hard Truck Apocalypse: Arcade / Ex Machina: Arcade May 24, 2007 $4.992% (26%)20,000 .. 50,0000%00:00 (00:00)
593 Zombies on a Plane Mar 25, 2016 $4.992% (25%)0 .. 20,0000%00:00 (00:00)
594 One Star Apr 17, 2017 $0.5N/A (N/A)50,000 .. 100,0000.45%03:23 (01:07)
595 APOX Jan 20, 2011 $14.992% (23%/48%)20,000 .. 50,0000%00:00 (00:00)
596 Elite vs. Freedom May 31, 2016 $4.992% (22%)0 .. 20,0000%00:00 (00:00)
597 The Asskickers-Steam Edition Feb 6, 2015 $9.992% (22%)0 .. 20,0000%00:00 (00:00)
598 Lords of the Black Sun Sep 12, 2014 $29.992% (21%)0 .. 20,0000%00:00 (00:00)
599 Human Extinction Simulator Jan 21, 2015 $19.99N/A (N/A)0 .. 20,0000%00:00 (00:00)
600 Gemini Wars Nov 2, 2012 $14.991% (18%/53%)20,000 .. 50,0000%00:00 (00:00)
601 Tryst Sep 14, 2012 $14.99N/A (N/A/50%)0 .. 20,0000%00:00 (00:00)
602 Star Project Aug 4, 2016 $0.491% (16%)50,000 .. 100,0007.05%04:10 (04:14)
603 Prison Tycoon 3: Lockdown Aug 1, 2007 $9.991% (15%)20,000 .. 50,0000%00:00 (00:00)
604 Once Bitten, Twice Dead! Jul 17, 2015 $4.991% (13%)20,000 .. 50,0000%00:00 (00:00)
605 Citadels Jul 25, 2013 $14.991% (12%/20%)20,000 .. 50,0000%00:00 (00:00)
606 Bloodbath Jun 16, 2014 $14.99N/A (N/A)0 .. 20,0000%00:00 (00:00)
607 Magnetic By Nature Nov 10, 2014 $9.99N/A (N/A)20,000 .. 50,0000%00:00 (00:00)

Owners of this game also own:

Access restricted.

This feature is only available to users with special access rights. Sorry.

If you want to proceed, you need to register or log in first and then back Steam Spy on Patreon. Look for Indie or Pro pledge.

Don't forget to use the same email as on Steam Spy!

Playtime distribution:

Access restricted.

This feature is only available to users with special access rights. Sorry.

If you want to proceed, you need to register or log in first and then back Steam Spy on Patreon. Look for Indie or Pro pledge.

Don't forget to use the same email as on Steam Spy!

Playtime (2 weeks):

Access restricted.

This feature is only available to users with special access rights. Sorry.

If you want to proceed, you need to register or log in first and then back Steam Spy on Patreon. Look for Indie or Pro pledge.

Don't forget to use the same email as on Steam Spy!

User reviews:

Login required.

Please register or log in to see this information.